User: anonymous
Location: NJAA Observatory
(40.6819°N, 74.8979°W)
Time: 11:57:25
(UTC-04:00)
Language:

Cosmos 2082 - Orbit

View from above orbital plane
View from above orbital plane
View from above satellite
View from above satellite

Ground track
Ground track

The orbit data is extracted from the following two-line orbital elements,

1 20624U 90046A   14205.61434964  .00000095  00000-0  74804-4 0  9724
2 20624 071.0387 270.0283 0015783 208.6692 256.4118 14.14075535247545
Epoch (UTC): 24 July 2014 14:44:39
Eccentricity: 0.0015783
inclination: 71.0387°
perigee height: 834 km
apogee height: 857 km
right ascension of ascending node: 270.0283°
argument of perigee: 208.6692°
revolutions per day: 14.14075535
mean anomaly at epoch: 256.4118°
orbit number at epoch: 24754

The dashed part of the orbit path shows where the satellite is in the earth's shadow,  

DLR